{"data":{"norad_id":54099,"epoch":"2026-05-24T22:53:22.597728Z","epoch_age_seconds":78720,"freshness":"FRESH","line1":"1 54099U 22136BA  26144.95373377  .00000207  00000+0  31092-4 0  9999","line2":"2 54099  53.2149 351.3090 0001121  79.2260 280.8858 15.08839813198503","mean_motion":15.08839813,"eccentricity":0.0001121,"inclination_deg":53.2149,"raan_deg":351.309,"arg_perigee_deg":79.226,"mean_anomaly_deg":280.8858,"bstar":3.1092e-5,"rev_number":19850,"period_min":95.437566505942,"perigee_km":538.96846609268,"apogee_km":540.51945500403,"semimajor_km":6917.8809605484,"source":"CELESTRAK","updated_at":"2026-05-25T13:38:17.657253Z"}}